Weather History for KSFZ - March, 2013

Change the Weather History Date:

Tuesday, March 19, 2013

  Actual Average (KPVD) Record (KPVD)
Temperature  
Mean Temperature 32 °F 40 °F  
Max Temperature 35 °F 49 °F 73 °F (2012)
Min Temperature 28 °F 31 °F 1 °F (1967)
Degree Days  
Heating Degree Days 34 25  
Month to date heating degree days 531  
Since 1 July heating degree days 4593  
Cooling Degree Days 0 0  
Month to date cooling degree days 0  
Year to date cooling degree days 0  
Moisture  
Dew Point 28 °F    
Average Humidity 84    
Maximum Humidity 93    
Minimum Humidity 80    
Precipitation  
Precipitation 0.76 in 0.18 in 1.68 in (1998)
Month to date precipitation 2.92  
Year to date precipitation 10.07  
Snow  
Snow 0.00 in 0.10 in 14.70 in (1956)
Month to date snowfall 4.1  
Since 1 July snowfall 31.8  
Snow Depth -    
Sea Level Pressure  
Sea Level Pressure 29.81 in    
Wind  
Wind Speed 11 mph (NE)    
Max Wind Speed 23 mph    
Max Gust Speed 30 mph    
Visibility 4 miles    
Events      
T = Trace of Precipitation, MM = Missing Value Source: NWS Daily Summary

Daily Weather History Graph

Daily Weather History Graph

Search for Another Location

Airport or City:

Trip Planner

Search our weather history database for the weather conditions in past years. The results will help you decide how hot, cold, wet, or windy it might be!

Date:

Astronomy

Mar. 19, 2013 Rise Set
Actual Time 6:50 AM EDT 6:57 PM EDT
Civil Twilight 6:22 AM EDT 7:25 PM EDT
Nautical Twilight 5:50 AM EDT 7:57 PM EDT
Astronomical Twilight 5:17 AM EDT 8:30 PM EDT
Moon 11:33 AM EDT (3/19) 1:47 AM EDT (3/19)
Length of Visible Light 13h 02m
Length of Day
12h 06m
Waxing Crescent, 49% of the Moon is Illuminated
Mar 19
Waxing Crescent
Mar 19
First Quarter
Mar 27
Full
Apr 3
Last Quarter
Apr 10
New

Hourly Weather History & Observations

Time (EDT) Temp. Windchill Dew Point Humidity Pressure Visibility Wind Dir Wind Speed Gust Speed Precip Events Conditions
12:15 AM 28.4 °F 20.4 °F 24.8 °F 86% 30.18 in 0.8 mi East 8.1 mph - N/A   Overcast
12:35 AM 28.4 °F 20.4 °F 23.0 °F 80% 30.17 in 0.5 mi East 8.1 mph - N/A   Overcast
12:55 AM 28.4 °F 19.1 °F 24.8 °F 86% 30.14 in 0.8 mi East 10.4 mph - N/A   Overcast
1:15 AM 28.4 °F 19.7 °F 23.0 °F 80% 30.12 in 0.8 mi East 9.2 mph - N/A   Overcast
1:35 AM 28.4 °F 19.1 °F 23.0 °F 80% 30.11 in 1.2 mi East 10.4 mph 17.3 mph N/A   Overcast
1:55 AM 28.4 °F 19.7 °F 23.0 °F 80% 30.10 in 1.5 mi East 9.2 mph - N/A   Overcast
2:35 AM 28.4 °F 19.7 °F 24.8 °F 86% 30.08 in 5.0 mi East 9.2 mph - 0.01 in   Overcast
2:55 AM 28.4 °F 19.7 °F 24.8 °F 86% 30.06 in 5.0 mi East 9.2 mph - 0.05 in   Overcast
3:15 AM 28.4 °F 20.4 °F 24.8 °F 86% 30.06 in 5.0 mi East 8.1 mph - 0.03 in   Overcast
3:35 AM 28.4 °F 19.7 °F 24.8 °F 86% 30.04 in 5.0 mi ENE 9.2 mph - 0.06 in   Overcast
3:55 AM 28.4 °F 19.7 °F 24.8 °F 86% 30.02 in 6.0 mi ENE 9.2 mph - 0.09 in   Overcast
4:15 AM 28.4 °F 18.0 °F 24.8 °F 86% 30.01 in 4.0 mi ENE 12.7 mph 16.1 mph 0.03 in   Overcast
4:35 AM 28.4 °F 19.1 °F 24.8 °F 86% 30.00 in 3.0 mi ENE 10.4 mph 17.3 mph 0.06 in   Overcast
5:15 AM 28.4 °F 18.0 °F 24.8 °F 86% 30.00 in 3.0 mi ENE 12.7 mph 19.6 mph N/A   Overcast
5:35 AM 28.4 °F 19.7 °F 24.8 °F 86% 29.99 in 2.0 mi East 9.2 mph 16.1 mph N/A   Overcast
5:55 AM 30.2 °F 20.8 °F 24.8 °F 80% 29.98 in 2.0 mi ENE 11.5 mph - N/A   Overcast
6:15 AM 30.2 °F 21.9 °F 24.8 °F 80% 29.97 in 2.5 mi East 9.2 mph 17.3 mph N/A   Overcast
6:35 AM 30.2 °F 20.8 °F 26.6 °F 86% 29.96 in 3.0 mi East 11.5 mph 17.3 mph N/A   Overcast
6:55 AM 30.2 °F 21.3 °F 26.6 °F 86% 29.96 in 2.0 mi East 10.4 mph - 0.04 in   Overcast
7:35 AM 30.2 °F 21.3 °F 26.6 °F 86% 29.94 in 3.0 mi ENE 10.4 mph 19.6 mph 0.02 in   Overcast
8:15 AM 32.0 °F 22.1 °F 26.6 °F 80% 29.91 in 2.5 mi ENE 13.8 mph 21.9 mph 0.02 in   Overcast
8:35 AM 32.0 °F 21.6 °F 26.6 °F 80% 29.90 in 1.5 mi East 15.0 mph 20.7 mph 0.05 in   Overcast
8:55 AM 32.0 °F 23.0 °F 28.4 °F 87% 29.88 in 2.0 mi ENE 11.5 mph 20.7 mph 0.08 in   Overcast
9:35 AM 32.0 °F 22.5 °F 28.4 °F 87% 29.86 in 2.5 mi East 12.7 mph 20.7 mph 0.11 in   Overcast
9:55 AM 33.8 °F 23.9 °F 28.4 °F 81% 29.84 in 3.0 mi ENE 15.0 mph 20.7 mph 0.15 in   Overcast
10:15 AM 33.8 °F 24.3 °F 28.4 °F 81% 29.83 in 4.0 mi ENE 13.8 mph 23.0 mph 0.04 in   Overcast
10:35 AM 33.8 °F 23.9 °F 28.4 °F 81% 29.82 in 5.0 mi ENE 15.0 mph 21.9 mph 0.06 in   Overcast
10:55 AM 33.8 °F 23.9 °F 30.2 °F 87% 29.81 in 5.0 mi ENE 15.0 mph 25.3 mph 0.07 in   Overcast
11:15 AM 33.8 °F 24.8 °F 30.2 °F 87% 29.80 in 5.0 mi ENE 12.7 mph 18.4 mph 0.02 in   Overcast
11:55 AM 33.8 °F 25.3 °F 30.2 °F 87% 29.76 in 10.0 mi NE 11.5 mph 19.6 mph 0.03 in   Overcast
12:15 PM 35.6 °F 28.0 °F 30.2 °F 81% 29.76 in 10.0 mi NE 10.4 mph 16.1 mph 0.01 in   Overcast
12:35 PM 35.6 °F 27.5 °F 30.2 °F 81% 29.73 in 4.0 mi ENE 11.5 mph - 0.01 in   Overcast
12:55 PM 35.6 °F 27.1 °F 30.2 °F 81% 29.71 in 1.8 mi ENE 12.7 mph 19.6 mph 0.02 in   Overcast
1:15 PM 35.6 °F 26.2 °F 30.2 °F 81% 29.70 in 2.0 mi NE 15.0 mph 20.7 mph 0.01 in   Overcast
1:35 PM 35.6 °F 27.1 °F 30.2 °F 81% 29.67 in 2.0 mi NE 12.7 mph 20.7 mph 0.01 in   Overcast
1:55 PM 35.6 °F 27.1 °F 33.8 °F 93% 29.67 in 2.0 mi NE 12.7 mph 19.6 mph 0.01 in   Overcast
2:35 PM 35.6 °F 27.1 °F 32.0 °F 87% 29.67 in 0.8 mi North 12.7 mph - 0.09 in   Overcast
2:55 PM 35.6 °F 28.0 °F 32.0 °F 87% 29.68 in 3.0 mi North 10.4 mph 16.1 mph 0.12 in   Overcast
3:15 PM 35.6 °F 26.2 °F 30.2 °F 81% 29.67 in 4.0 mi NNW 15.0 mph 20.7 mph N/A   Overcast
3:35 PM 33.8 °F 21.6 °F 30.2 °F 87% 29.62 in 1.5 mi NNE 23.0 mph 27.6 mph 0.01 in   Overcast
3:55 PM 33.8 °F 21.9 °F 30.2 °F 87% 29.61 in 4.0 mi NNE 21.9 mph 29.9 mph 0.02 in   Overcast
4:15 PM 33.8 °F 23.2 °F 30.2 °F 87% 29.61 in 10.0 mi NNE 17.3 mph 26.5 mph N/A   Overcast
4:35 PM 33.8 °F 22.8 °F 30.2 °F 87% 29.59 in 10.0 mi NNE 18.4 mph 25.3 mph N/A   Overcast
5:15 PM 33.8 °F 25.8 °F 30.2 °F 87% 29.59 in 10.0 mi North 10.4 mph 23.0 mph N/A   Overcast
5:35 PM 33.8 °F 23.9 °F 30.2 °F 87% 29.60 in 10.0 mi North 15.0 mph - N/A   Overcast
5:55 PM 33.8 °F 25.3 °F 30.2 °F 87% 29.61 in 10.0 mi NNW 11.5 mph - N/A   Overcast
6:15 PM 33.8 °F 25.8 °F 30.2 °F 87% 29.61 in 6.0 mi North 10.4 mph 17.3 mph N/A   Overcast
6:35 PM 33.8 °F 25.3 °F 30.2 °F 87% 29.62 in 2.0 mi NNW 11.5 mph - N/A   Overcast
6:55 PM 33.8 °F 26.4 °F 28.4 °F 81% 29.63 in 1.8 mi NNW 9.2 mph 18.4 mph N/A   Overcast
7:15 PM 33.8 °F 24.8 °F 30.2 °F 87% 29.63 in 2.0 mi NNW 12.7 mph 16.1 mph N/A   Overcast
7:55 PM 33.8 °F 27.0 °F 28.4 °F 81% 29.63 in 5.0 mi NNW 8.1 mph - N/A   Overcast
8:15 PM 32.0 °F 24.2 °F 28.4 °F 87% 29.63 in 2.0 mi WNW 9.2 mph - N/A   Overcast
8:35 PM 32.0 °F 24.2 °F 28.4 °F 87% 29.66 in 1.8 mi WNW 9.2 mph - N/A   Overcast
8:55 PM 32.0 °F 24.2 °F 28.4 °F 87% 29.67 in 2.0 mi WNW 9.2 mph 17.3 mph N/A   Overcast
9:15 PM 32.0 °F 23.0 °F 28.4 °F 87% 29.68 in 2.5 mi WNW 11.5 mph - N/A   Overcast
9:35 PM 32.0 °F 23.0 °F 28.4 °F 87% 29.68 in 3.0 mi WNW 11.5 mph 18.4 mph N/A   Overcast
10:15 PM 30.2 °F 20.8 °F 26.6 °F 86% 29.67 in 10.0 mi NNW 11.5 mph - N/A   Mostly Cloudy
10:35 PM 32.0 °F 23.6 °F 26.6 °F 80% 29.68 in 10.0 mi NW 10.4 mph - N/A   Partly Cloudy
10:55 PM 30.2 °F 20.8 °F 26.6 °F 86% 29.68 in 10.0 mi NW 11.5 mph - N/A   Scattered Clouds
11:15 PM 30.2 °F 19.8 °F 24.8 °F 80% 29.69 in 10.0 mi NW 13.8 mph 18.4 mph N/A   Mostly Cloudy
11:35 PM 30.2 °F 20.8 °F 24.8 °F 80% 29.69 in 10.0 mi NW 11.5 mph - N/A   Overcast
11:55 PM 30.2 °F 20.8 °F 24.8 °F 80% 29.70 in 10.0 mi NNW 11.5 mph - N/A   Mostly Cloudy